When you browse on this site, cookies collect data to enhance your experience and personalize the content and advertising you see.
Visit our Privacy Policy to learn more. By continuing to use the site, you agree to this use of cookies and data.
  • en Suisse
  • Liste des pays
  • À 7 jours
  • Température de l'eau
  • Carte satellitaire
  • Carte météo
  • Widgets météo
  • user-avatar
    Se connecter

    Météo par heure à Mozoli

    Ce jour, 20 Juin, Jeudi

    Heure Température Précipitation Vent Pression Humidité
    00:00 +19°C° 0 mm 2 m/s 747 mmHg 91%
    01:00 +18°C° 0 mm 2 m/s 747 mmHg 92%
    02:00 +18°C° 0 mm 2 m/s 747 mmHg 93%
    03:00 +18°C° 0 mm 2 m/s 746 mmHg 93%
    04:00 +18°C° 0 mm 2 m/s 746 mmHg 94%
    05:00 +18°C° 0 mm 3 m/s 746 mmHg 94%
    06:00 +20°C° 0 mm 3 m/s 746 mmHg 90%
    07:00 +21°C° 0 mm 3 m/s 746 mmHg 87%
    08:00 +24°C° 0 mm 3 m/s 746 mmHg 83%
    09:00 +25°C° 1 mm 3 m/s 746 mmHg 78%
    10:00 +26°C° 1 mm 3 m/s 746 mmHg 73%
    11:00 +28°C° 1 mm 4 m/s 745 mmHg 68%
    12:00 +28°C° 0.9 mm 3 m/s 745 mmHg 66%
    13:00 +29°C° 0.9 mm 3 m/s 745 mmHg 63%
    14:00 +29°C° 0.9 mm 3 m/s 745 mmHg 61%
    15:00 +29°C° 1.4 mm 3 m/s 745 mmHg 63%
    16:00 +29°C° 1.4 mm 2 m/s 745 mmHg 64%
    17:00 +29°C° 1.4 mm 1 m/s 745 mmHg 66%
    18:00 +27°C° 0.7 mm 1 m/s 745 mmHg 71%
    19:00 +26°C° 0.7 mm 1 m/s 745 mmHg 77%
    20:00 +25°C° 0.7 mm 1 m/s 745 mmHg 82%
    21:00 +24°C° 0.6 mm 2 m/s 745 mmHg 84%
    22:00 +23°C° 0.6 mm 2 m/s 745 mmHg 87%
    23:00 +21°C° 0.6 mm 2 m/s 745 mmHg 89%

    Demain, 21 Juin, Vendredi

    Heure Température Précipitation Vent Pression Humidité
    00:00 +21°C° 0.4 mm 2 m/s 745 mmHg 90%
    01:00 +20°C° 0.4 mm 2 m/s 745 mmHg 91%
    02:00 +20°C° 0.4 mm 2 m/s 746 mmHg 92%
    03:00 +20°C° 0 mm 2 m/s 745 mmHg 92%
    04:00 +20°C° 0 mm 2 m/s 745 mmHg 92%
    05:00 +20°C° 0 mm 1 m/s 745 mmHg 93%
    06:00 +22°C° 0 mm 1 m/s 746 mmHg 89%
    07:00 +23°C° 0 mm 2 m/s 746 mmHg 85%
    08:00 +25°C° 0 mm 2 m/s 746 mmHg 81%
    09:00 +26°C° 0.3 mm 2 m/s 746 mmHg 75%
    10:00 +27°C° 0.3 mm 2 m/s 746 mmHg 70%
    11:00 +29°C° 0.3 mm 2 m/s 746 mmHg 64%
    12:00 +29°C° 0.4 mm 2 m/s 746 mmHg 62%
    13:00 +29°C° 0.4 mm 2 m/s 746 mmHg 60%
    14:00 +29°C° 0.4 mm 2 m/s 746 mmHg 59%
    15:00 +29°C° 0.9 mm 2 m/s 746 mmHg 63%
    16:00 +28°C° 0.9 mm 2 m/s 746 mmHg 66%
    17:00 +28°C° 0.9 mm 1 m/s 746 mmHg 70%
    18:00 +27°C° 0.4 mm 1 m/s 746 mmHg 75%
    19:00 +25°C° 0.4 mm 1 m/s 746 mmHg 81%
    20:00 +24°C° 0.4 mm 2 m/s 746 mmHg 86%
    21:00 +23°C° 0.2 mm 1 m/s 746 mmHg 87%
    22:00 +22°C° 0.2 mm 1 m/s 746 mmHg 89%
    23:00 +22°C° 0.2 mm 1 m/s 747 mmHg 90%

    Après-demain, 22 Juin, Samedi

    Heure Température Précipitation Vent Pression Humidité
    00:00 +20°C° 1.1 mm 2 m/s 747 mmHg 91%
    01:00 +20°C° 1.1 mm 2 m/s 747 mmHg 93%
    02:00 +20°C° 1.1 mm 2 m/s 747 mmHg 95%
    03:00 +20°C° 1.1 mm 2 m/s 747 mmHg 95%
    04:00 +19°C° 1.1 mm 3 m/s 747 mmHg 96%
    05:00 +19°C° 1.1 mm 3 m/s 747 mmHg 97%
    06:00 +19°C° 0.2 mm 3 m/s 748 mmHg 96%
    07:00 +19°C° 0.2 mm 4 m/s 748 mmHg 96%
    08:00 +19°C° 0.2 mm 4 m/s 749 mmHg 95%
    09:00 +20°C° 0 mm 4 m/s 749 mmHg 92%
    10:00 +21°C° 0 mm 5 m/s 749 mmHg 88%
    11:00 +22°C° 0 mm 5 m/s 749 mmHg 85%
    12:00 +23°C° 0.4 mm 5 m/s 749 mmHg 82%
    13:00 +23°C° 0.4 mm 5 m/s 749 mmHg 79%
    14:00 +25°C° 0.4 mm 5 m/s 750 mmHg 75%
    15:00 +25°C° 0.2 mm 5 m/s 750 mmHg 75%
    16:00 +25°C° 0.2 mm 5 m/s 749 mmHg 74%
    17:00 +25°C° 0.2 mm 4 m/s 749 mmHg 73%
    18:00 +23°C° 0 mm 4 m/s 750 mmHg 76%
    19:00 +22°C° 0 mm 4 m/s 750 mmHg 80%
    20:00 +21°C° 0 mm 4 m/s 750 mmHg 83%
    21:00 +20°C° 0 mm 4 m/s 750 mmHg 83%
    22:00 +19°C° 0 mm 4 m/s 750 mmHg 82%
    23:00 +19°C° 0 mm 4 m/s 750 mmHg 82%

    23 Juin, Dimanche

    Heure Température Précipitation Vent Pression Humidité
    00:00 +17°C° 0 mm 5 m/s 750 mmHg 82%
    01:00 +17°C° 0 mm 5 m/s 750 mmHg 81%
    02:00 +17°C° 0 mm 5 m/s 750 mmHg 81%
    03:00 +16°C° 0.2 mm 5 m/s 750 mmHg 84%
    04:00 +17°C° 0.2 mm 4 m/s 750 mmHg 87%
    05:00 +15°C° 0.2 mm 4 m/s 750 mmHg 90%
    06:00 +15°C° 0.2 mm 4 m/s 750 mmHg 90%
    07:00 +15°C° 0.2 mm 5 m/s 750 mmHg 91%
    08:00 +15°C° 0.2 mm 5 m/s 751 mmHg 91%
    09:00 +16°C° 0.2 mm 5 m/s 751 mmHg 92%
    10:00 +16°C° 0.2 mm 5 m/s 751 mmHg 92%
    11:00 +16°C° 0.2 mm 5 m/s 751 mmHg 93%
    12:00 +17°C° 0.1 mm 5 m/s 751 mmHg 91%
    13:00 +17°C° 0.1 mm 5 m/s 751 mmHg 90%
    14:00 +19°C° 0.1 mm 5 m/s 751 mmHg 89%
    15:00 +19°C° 0.1 mm 5 m/s 751 mmHg 89%
    16:00 +19°C° 0.1 mm 5 m/s 751 mmHg 90%
    17:00 +19°C° 0.1 mm 5 m/s 751 mmHg 91%
    18:00 +19°C° 0.1 mm 4 m/s 751 mmHg 92%
    19:00 +18°C° 0.1 mm 4 m/s 751 mmHg 93%
    20:00 +18°C° 0.1 mm 4 m/s 751 mmHg 94%
    21:00 +18°C° 0.4 mm 4 m/s 752 mmHg 95%
    22:00 +18°C° 0.4 mm 4 m/s 752 mmHg 95%
    23:00 +18°C° 0.4 mm 4 m/s 752 mmHg 96%

    24 Juin, Lundi

    Heure Température Précipitation Vent Pression Humidité
    00:00 +18°C° 0.2 mm 4 m/s 752 mmHg 96%
    01:00 +18°C° 0.2 mm 4 m/s 752 mmHg 96%
    02:00 +18°C° 0.2 mm 4 m/s 752 mmHg 97%
    03:00 +18°C° 0.2 mm 4 m/s 752 mmHg 97%
    04:00 +18°C° 0.2 mm 4 m/s 752 mmHg 97%
    05:00 +18°C° 0.2 mm 4 m/s 752 mmHg 97%
    06:00 +18°C° 0.1 mm 4 m/s 753 mmHg 97%
    07:00 +18°C° 0.1 mm 4 m/s 753 mmHg 96%
    08:00 +19°C° 0.1 mm 4 m/s 753 mmHg 96%
    09:00 +19°C° 0 mm 4 m/s 754 mmHg 95%
    10:00 +19°C° 0 mm 4 m/s 754 mmHg 94%
    11:00 +19°C° 0 mm 4 m/s 754 mmHg 93%
    12:00 +20°C° 0 mm 4 m/s 754 mmHg 90%
    13:00 +21°C° 0 mm 4 m/s 754 mmHg 87%
    14:00 +22°C° 0 mm 4 m/s 754 mmHg 84%
    15:00 +22°C° 0 mm 5 m/s 754 mmHg 83%
    16:00 +22°C° 0 mm 5 m/s 754 mmHg 82%
    17:00 +22°C° 0 mm 5 m/s 754 mmHg 81%
    18:00 +21°C° 0 mm 5 m/s 755 mmHg 83%
    19:00 +20°C° 0 mm 4 m/s 755 mmHg 85%
    20:00 +18°C° 0 mm 4 m/s 755 mmHg 87%
    21:00 +18°C° 0 mm 4 m/s 755 mmHg 87%
    22:00 +17°C° 0 mm 3 m/s 755 mmHg 88%
    23:00 +16°C° 0 mm 3 m/s 756 mmHg 89%

    25 Juin, Mardi

    Heure Température Précipitation Vent Pression Humidité
    00:00 +14°C° 0 mm 3 m/s 756 mmHg 87%
    01:00 +14°C° 0 mm 3 m/s 756 mmHg 85%
    02:00 +14°C° 0 mm 3 m/s 756 mmHg 84%
    03:00 +14°C° 0 mm 3 m/s 756 mmHg 84%
    04:00 +14°C° 0 mm 3 m/s 756 mmHg 85%
    05:00 +14°C° 0 mm 3 m/s 756 mmHg 86%
    06:00 +17°C° 0 mm 3 m/s 756 mmHg 84%
    07:00 +18°C° 0 mm 3 m/s 756 mmHg 81%
    08:00 +20°C° 0 mm 3 m/s 756 mmHg 79%
    09:00 +22°C° 0 mm 3 m/s 757 mmHg 74%
    10:00 +24°C° 0 mm 3 m/s 757 mmHg 70%
    11:00 +26°C° 0 mm 3 m/s 757 mmHg 66%
    12:00 +26°C° 0 mm 3 m/s 756 mmHg 65%
    13:00 +27°C° 0 mm 3 m/s 756 mmHg 65%
    14:00 +27°C° 0 mm 3 m/s 756 mmHg 64%
    15:00 +27°C° 0 mm 3 m/s 756 mmHg 66%
    16:00 +27°C° 0 mm 3 m/s 756 mmHg 67%
    17:00 +27°C° 0 mm 3 m/s 756 mmHg 68%
    18:00 +25°C° 0 mm 3 m/s 756 mmHg 73%
    19:00 +24°C° 0 mm 3 m/s 756 mmHg 78%
    20:00 +23°C° 0 mm 2 m/s 756 mmHg 83%
    21:00 +21°C° 0 mm 2 m/s 756 mmHg 84%
    22:00 +19°C° 0 mm 2 m/s 756 mmHg 85%
    23:00 +18°C° 0 mm 2 m/s 756 mmHg 86%
    Voir plus